| time (UTC) | temp C | wind direction | speed KPH | gust KPH | rain 1hr cm | rain 24hr cm | rain mn cm | humidity % | barometer mb |
| 20260508125241 | 30 | 107 | 12.9 | 22.5 | 0.00 | 0.03 | 0.03 | 72 | 1012.2 |
| 20260508124502 | 30 | 92 | 11.3 | 22.5 | 0.00 | 0.03 | 0.03 | 72 | 1012.1 |
| 20260508124255 | 30 | 123 | 11.3 | 20.9 | 0.00 | 0.03 | 0.03 | 72 | 1012.0 |
| 20260508123255 | 30 | 109 | 12.9 | 20.9 | 0.00 | 0.03 | 0.03 | 72 | 1011.9 |
| 20260508123102 | 30 | 99 | 14.5 | 22.5 | 0.00 | 0.03 | 0.03 | 72 | 1012.0 |
| 20260508122258 | 30 | 123 | 11.3 | 19.3 | 0.00 | 0.03 | 0.03 | 71 | 1011.8 |
| 20260508121603 | 30 | 115 | 12.9 | 20.9 | 0.00 | 0.03 | 0.03 | 71 | 1011.7 |
| 20260508121317 | 31 | 96 | 11.3 | 19.3 | 0.00 | 0.03 | 0.03 | 70 | 1011.6 |
| 20260508120250 | 31 | 117 | 11.3 | 24.1 | 0.00 | 0.03 | 0.03 | 70 | 1011.5 |
| 20260508120005 | 30 | 107 | 11.3 | 22.5 | 0.00 | 0.03 | 0.03 | 70 | 1011.5 |
| 20260508115228 | 31 | 123 | 12.9 | 24.1 | 0.00 | 0.03 | 0.03 | 69 | 1011.4 |
| 20260508114604 | 31 | 113 | 12.9 | 24.1 | 0.00 | 0.03 | 0.03 | 69 | 1011.1 |
| 20260508114208 | 31 | 103 | 11.3 | 24.1 | 0.00 | 0.03 | 0.03 | 69 | 1011.1 |
| 20260508113230 | 31 | 110 | 14.5 | 22.5 | 0.00 | 0.03 | 0.03 | 68 | 1010.9 |
| 20260508113005 | 31 | 117 | 14.5 | 24.1 | 0.00 | 0.03 | 0.03 | 68 | 1011.0 |
| 20260508112220 | 31 | 96 | 12.9 | 22.5 | 0.00 | 0.03 | 0.03 | 67 | 1010.9 |
| 20260508111504 | 31 | 132 | 11.3 | 22.5 | 0.00 | 0.03 | 0.03 | 66 | 1010.9 |
| 20260508110103 | 31 | 136 | 12.9 | 25.7 | 0.00 | 0.03 | 0.03 | 64 | 1010.5 |
| 20260508110057 | 31 | 142 | 12.9 | 24.1 | 0.00 | 0.03 | 0.03 | 64 | 1010.5 |
| 20260508105025 | 31 | 134 | 11.3 | 20.9 | 0.00 | 0.03 | 0.03 | 65 | 1010.3 |
| 20260508104605 | 31 | 109 | 11.3 | 22.5 | 0.00 | 0.03 | 0.03 | 66 | 1010.4 |
| 20260508104033 | 31 | 113 | 11.3 | 30.6 | 0.00 | 0.03 | 0.03 | 67 | 1010.2 |
| 20260508103014 | 32 | 111 | 12.9 | 30.6 | 0.00 | 0.03 | 0.03 | 66 | 1010.0 |
| 20260508103003 | 31 | 109 | 14.5 | 32.2 | 0.00 | 0.03 | 0.03 | 66 | 1010.1 |
| 20260508101945 | 32 | 105 | 12.9 | 24.1 | 0.00 | 0.03 | 0.03 | 67 | 1009.9 |
| 20260508101503 | 31 | 111 | 16.1 | 25.7 | 0.00 | 0.03 | 0.03 | 67 | 1009.9 |
| 20260508101002 | 32 | 122 | 12.9 | 24.1 | 0.00 | 0.03 | 0.03 | 66 | 1009.9 |
| 20260508100105 | 32 | 138 | 12.9 | 24.1 | 0.00 | 0.03 | 0.03 | 66 | 1009.9 |
| 20260508095930 | 32 | 105 | 12.9 | 24.1 | 0.00 | 0.03 | 0.03 | 66 | 1009.9 |
| 20260508094915 | 32 | 126 | 12.9 | 24.1 | 0.00 | 0.03 | 0.03 | 65 | 1009.7 |
| 20260508094503 | 32 | 130 | 16.1 | 25.7 | 0.00 | 0.03 | 0.03 | 65 | 1009.3 |
| 20260508093935 | 32 | 111 | 14.5 | 24.1 | 0.00 | 0.03 | 0.03 | 65 | 1009.4 |
| 20260508093103 | 32 | 120 | 16.1 | 29.0 | 0.00 | 0.03 | 0.03 | 63 | 1009.3 |
| 20260508091734 | 33 | 133 | 14.5 | 30.6 | 0.00 | 0.03 | 0.03 | 64 | 1009.1 |
| 20260508091607 | 32 | 159 | 16.1 | 32.2 | 0.00 | 0.03 | 0.03 | 64 | 1009.1 |
| 20260508090730 | 33 | 110 | 14.5 | 30.6 | 0.00 | 0.03 | 0.03 | 63 | 1008.9 |
| 20260508084534 | 33 | 126 | 14.5 | 32.2 | 0.00 | 0.03 | 0.03 | 60 | 1008.9 |
| 20260508084503 | 33 | 125 | 12.9 | 33.8 | 0.00 | 0.03 | 0.03 | 59 | 1008.9 |
| 20260508083103 | 33 | 136 | 16.1 | 33.8 | 0.00 | 0.03 | 0.03 | 58 | 1008.6 |
| 20260508082433 | 33 | 134 | 16.1 | 32.2 | 0.00 | 0.03 | 0.03 | 58 | 1008.6 |
| 20260508081618 | 33 | 113 | 17.7 | 33.8 | 0.00 | 0.03 | 0.03 | 57 | 1008.7 |
| 20260508081403 | 34 | 109 | 16.1 | 32.2 | 0.00 | 0.03 | 0.03 | 56 | 1008.6 |
| 20260508080405 | 34 | 108 | 14.5 | 30.6 | 0.00 | 0.03 | 0.03 | 55 | 1008.5 |
| 20260508080003 | 34 | 119 | 12.9 | 32.2 | 0.00 | 0.03 | 0.03 | 56 | 1008.6 |
| 20260508075424 | 34 | 129 | 17.7 | 33.8 | 0.00 | 0.03 | 0.03 | 54 | 1008.5 |
| 20260508074607 | 34 | 126 | 17.7 | 32.2 | 0.00 | 0.03 | 0.03 | 53 | 1008.5 |
| 20260508074405 | 34 | 107 | 19.3 | 33.8 | 0.00 | 0.03 | 0.03 | 53 | 1008.4 |
| 20260508073410 | 35 | 96 | 16.1 | 30.6 | 0.00 | 0.03 | 0.03 | 52 | 1008.6 |
| 20260508073003 | 34 | 170 | 17.7 | 32.2 | 0.00 | 0.03 | 0.03 | 53 | 1008.7 |
| 20260508072429 | 34 | 136 | 19.3 | 38.6 | 0.00 | 0.03 | 0.03 | 53 | 1008.7 |
| 20260508071505 | 34 | 110 | 19.3 | 40.2 | 0.00 | 0.03 | 0.03 | 52 | 1008.6 |
| 20260508070215 | 35 | 0 | 16.1 | 35.4 | 0.00 | 0.03 | 0.03 | 52 | 1008.8 |
| 20260508070104 | 35 | 113 | 17.7 | 37.0 | 0.00 | 0.03 | 0.03 | 52 | 1008.9 |
| 20260508064511 | 35 | 116 | 17.7 | 33.8 | 0.00 | 0.03 | 0.03 | 51 | 1008.9 |
| 20260508064036 | 35 | 141 | 19.3 | 37.0 | 0.00 | 0.03 | 0.03 | 52 | 1008.9 |
| 20260508063103 | 35 | 103 | 19.3 | 38.6 | 0.00 | 0.03 | 0.03 | 52 | 1009.0 |
| 20260508063056 | 35 | 119 | 17.7 | 37.0 | 0.00 | 0.03 | 0.03 | 52 | 1008.9 |
| 20260508062110 | 35 | 128 | 17.7 | 37.0 | 0.00 | 0.03 | 0.03 | 52 | 1009.2 |
| 20260508061505 | 35 | 133 | 19.3 | 32.2 | 0.00 | 0.03 | 0.03 | 52 | 1009.3 |
| 20260508061128 | 35 | 171 | 17.7 | 35.4 | 0.00 | 0.03 | 0.03 | 52 | 1009.4 |
| 20260508060121 | 35 | 133 | 19.3 | 37.0 | 0.00 | 0.03 | 0.03 | 52 | 1009.4 |
| 20260508060110 | 35 | 115 | 24.1 | 37.0 | 0.00 | 0.03 | 0.03 | 52 | 1009.4 |
| 20260508054503 | 34 | 119 | 19.3 | 40.2 | 0.00 | 0.03 | 0.03 | 53 | 1009.6 |
| 20260508053116 | 34 | 120 | 22.5 | 37.0 | 0.00 | 0.03 | 0.03 | 51 | 1009.8 |
| 20260508052857 | 35 | 121 | 20.9 | 37.0 | 0.00 | 0.03 | 0.03 | 52 | 1009.8 |
| 20260508051905 | 35 | 138 | 19.3 | 37.0 | 0.00 | 0.03 | 0.03 | 53 | 1009.9 |
| 20260508051603 | 34 | 150 | 20.9 | 38.6 | 0.00 | 0.03 | 0.03 | 54 | 1010.1 |
| 20260508050906 | 35 | 122 | 17.7 | 37.0 | 0.00 | 0.03 | 0.03 | 55 | 1010.1 |
| 20260508050004 | 34 | 131 | 17.7 | 30.6 | 0.00 | 0.03 | 0.03 | 55 | 1010.4 |
| 20260508045844 | 35 | 116 | 16.1 | 37.0 | 0.00 | 0.03 | 0.03 | 55 | 1010.4 |
| 20260508044603 | 33 | 118 | 19.3 | 37.0 | 0.00 | 0.03 | 0.03 | 57 | 1010.7 |
| 20260508043712 | 34 | 143 | 17.7 | 32.2 | 0.00 | 0.03 | 0.03 | 58 | 1010.7 |
| 20260508043003 | 34 | 150 | 16.1 | 35.4 | 0.00 | 0.03 | 0.03 | 59 | 1010.7 |
| 20260508042654 | 34 | 152 | 20.9 | 35.4 | 0.00 | 0.03 | 0.03 | 58 | 1010.8 |
| 20260508041710 | 34 | 117 | 17.7 | 35.4 | 0.00 | 0.03 | 0.03 | 57 | 1010.9 |
| 20260508041504 | 34 | 149 | 17.7 | 37.0 | 0.00 | 0.03 | 0.03 | 58 | 1011.0 |
| 20260508040710 | 34 | 126 | 16.1 | 30.6 | 0.00 | 0.03 | 0.03 | 60 | 1011.1 |
| 20260508040108 | 33 | 128 | 19.3 | 32.2 | 0.00 | 0.03 | 0.03 | 60 | 1011.1 |
| 20260508035707 | 34 | 117 | 14.5 | 29.0 | 0.00 | 0.03 | 0.03 | 60 | 1011.1 |
| 20260508034509 | 33 | 123 | 16.1 | 30.6 | 0.00 | 0.03 | 0.03 | 63 | 1011.2 |
| 20260508033611 | 33 | 116 | 16.1 | 32.2 | 0.00 | 0.03 | 0.03 | 64 | 1011.2 |
| 20260508033102 | 33 | 136 | 19.3 | 33.8 | 0.00 | 0.03 | 0.03 | 64 | 1011.4 |
| 20260508032613 | 33 | 131 | 16.1 | 32.2 | 0.00 | 0.03 | 0.03 | 64 | 1011.5 |
| 20260508031607 | 33 | 119 | 17.7 | 29.0 | 0.00 | 0.03 | 0.03 | 64 | 1011.7 |
| 20260508031554 | 33 | 134 | 14.5 | 30.6 | 0.00 | 0.03 | 0.03 | 64 | 1011.6 |
| 20260508030538 | 33 | 152 | 14.5 | 30.6 | 0.00 | 0.03 | 0.03 | 65 | 1011.8 |
| 20260508030003 | 33 | 103 | 16.1 | 32.2 | 0.00 | 0.03 | 0.03 | 65 | 1011.9 |
| 20260508025558 | 33 | 149 | 12.9 | 24.1 | 0.00 | 0.03 | 0.03 | 65 | 1012.0 |
| 20260508024603 | 32 | 126 | 14.5 | 24.1 | 0.00 | 0.03 | 0.03 | 66 | 1012.0 |
| 20260508024525 | 33 | 115 | 12.9 | 27.4 | 0.00 | 0.03 | 0.03 | 67 | 1012.0 |
| 20260508023508 | 32 | 120 | 12.9 | 22.5 | 0.00 | 0.03 | 0.03 | 71 | 1012.2 |
| 20260508023004 | 31 | 123 | 11.3 | 24.1 | 0.00 | 0.03 | 0.03 | 74 | 1012.3 |
| 20260508022504 | 31 | 123 | 14.5 | 29.0 | 0.00 | 0.03 | 0.03 | 73 | 1012.3 |
| 20260508021505 | 31 | 113 | 12.9 | 29.0 | 0.00 | 0.03 | 0.03 | 73 | 1012.5 |
| 20260508021502 | 31 | 113 | 14.5 | 30.6 | 0.00 | 0.03 | 0.03 | 73 | 1012.5 |
| 20260508020521 | 31 | 118 | 11.3 | 27.4 | 0.00 | 0.03 | 0.03 | 72 | 1012.4 |
| 20260508015505 | 31 | 119 | 12.9 | 22.5 | 0.00 | 0.03 | 0.03 | 72 | 1012.6 |
| 20260508014504 | 31 | 116 | 12.9 | 20.9 | 0.00 | 0.03 | 0.03 | 72 | 1012.7 |
| 20260508014456 | 31 | 116 | 11.3 | 22.5 | 0.00 | 0.03 | 0.03 | 72 | 1012.6 |
| 20260508013433 | 31 | 111 | 12.9 | 22.5 | 0.00 | 0.03 | 0.03 | 71 | 1012.7 |
| 20260508013102 | 31 | 111 | 11.3 | 24.1 | 0.00 | 0.03 | 0.03 | 71 | 1012.6 |
| 20260508012439 | 31 | 105 | 12.9 | 24.1 | 0.00 | 0.03 | 0.03 | 71 | 1012.6 |
| 20260508011616 | 31 | 101 | 11.3 | 24.1 | 0.00 | 0.03 | 0.03 | 71 | 1012.8 |
| 20260508011434 | 31 | 107 | 14.5 | 24.1 | 0.00 | 0.03 | 0.03 | 71 | 1012.7 |
| 20260508010432 | 30 | 101 | 11.3 | 22.5 | 0.00 | 0.03 | 0.03 | 74 | 1012.8 |
| 20260508010007 | 30 | 101 | 12.9 | 24.1 | 0.00 | 0.03 | 0.03 | 73 | 1013.0 |
| 20260508005426 | 31 | 97 | 9.7 | 20.9 | 0.00 | 0.03 | 0.03 | 71 | 1013.0 |
| 20260508004602 | 31 | 93 | 9.7 | 22.5 | 0.00 | 0.03 | 0.03 | 69 | 1013.0 |
| 20260508004415 | 31 | 93 | 9.7 | 22.5 | 0.00 | 0.03 | 0.03 | 68 | 1013.0 |
| 20260508003434 | 31 | 101 | 12.9 | 22.5 | 0.00 | 0.03 | 0.03 | 68 | 1012.8 |
| 20260508003004 | 31 | 103 | 14.5 | 24.1 | 0.00 | 0.03 | 0.03 | 69 | 1012.8 |
| 20260508001502 | 31 | 82 | 6.4 | 17.7 | 0.00 | 0.03 | 0.03 | 72 | 1012.7 |
| 20260508001341 | 31 | 82 | 6.4 | 14.5 | 0.00 | 0.03 | 0.03 | 71 | 1012.7 |
| 20260508000335 | 31 | 78 | 6.4 | 11.3 | 0.00 | 0.03 | 0.03 | 73 | 1012.5 |
| 20260508000122 | 30 | 78 | 8.0 | 12.9 | 0.00 | 0.03 | 0.03 | 73 | 1012.6 |
| 20260507235309 | 30 | 78 | 6.4 | 16.1 | 0.00 | 0.03 | 0.03 | 73 | 1012.7 |
| 20260507234508 | 30 | 78 | 9.7 | 17.7 | 0.00 | 0.03 | 0.03 | 74 | 1012.7 |
| 20260507234257 | 30 | 78 | 6.4 | 16.1 | 0.00 | 0.03 | 0.03 | 74 | 1012.6 |
| 20260507233239 | 30 | 74 | 8.0 | 14.5 | 0.00 | 0.03 | 0.03 | 75 | 1012.5 |
| 20260507233104 | 30 | 74 | 9.7 | 16.1 | 0.00 | 0.03 | 0.03 | 75 | 1012.6 |
| 20260507232249 | 30 | 72 | 8.0 | 16.1 | 0.00 | 0.03 | 0.03 | 76 | 1012.3 |
| 20260507231615 | 29 | 69 | 4.8 | 17.7 | 0.00 | 0.03 | 0.03 | 77 | 1012.3 |
| 20260507231216 | 30 | 69 | 4.8 | 16.1 | 0.00 | 0.03 | 0.03 | 78 | 1012.2 |
| 20260507230241 | 29 | 67 | 4.8 | 14.5 | 0.00 | 0.03 | 0.03 | 80 | 1012.1 |
| 20260507230002 | 28 | 67 | 6.4 | 14.5 | 0.00 | 0.03 | 0.03 | 81 | 1012.2 |
| 20260507225217 | 28 | 67 | 6.4 | 14.5 | 0.00 | 0.03 | 0.03 | 83 | 1012.1 |
| 20260507224603 | 28 | 63 | 6.4 | 12.9 | 0.00 | 0.03 | 0.03 | 85 | 1012.3 |
| 20260507224201 | 28 | 63 | 6.4 | 11.3 | 0.00 | 0.03 | 0.03 | 85 | 1012.1 |
| 20260507223129 | 28 | 63 | 3.2 | 12.9 | 0.00 | 0.03 | 0.03 | 85 | 1012.0 |
| 20260507223004 | 28 | 63 | 3.2 | 11.3 | 0.00 | 0.03 | 0.03 | 85 | 1012.0 |
| 20260507222144 | 28 | 63 | 6.4 | 12.9 | 0.00 | 0.03 | 0.03 | 85 | 1011.9 |
| 20260507221503 | 27 | 63 | 9.7 | 14.5 | 0.00 | 0.03 | 0.03 | 85 | 1011.9 |
| 20260507221134 | 28 | 63 | 4.8 | 9.7 | 0.00 | 0.03 | 0.03 | 86 | 1011.8 |
| 20260507220149 | 28 | 63 | 1.6 | 8.0 | 0.00 | 0.03 | 0.03 | 86 | 1011.6 |
| 20260507215137 | 28 | 63 | 1.6 | 8.0 | 0.00 | 0.03 | 0.03 | 86 | 1011.5 |
| 20260507214506 | 27 | 63 | 3.2 | 9.7 | 0.00 | 0.03 | 0.03 | 85 | 1011.5 |
| 20260507213102 | 27 | 63 | 6.4 | 14.5 | 0.00 | 0.03 | 0.03 | 85 | 1011.3 |
| 20260507212956 | 28 | 63 | 6.4 | 12.9 | 0.00 | 0.03 | 0.03 | 85 | 1011.3 |
| 20260507211959 | 28 | 62 | 6.4 | 12.9 | 0.00 | 0.03 | 0.03 | 85 | 1011.2 |
| 20260507211504 | 27 | 62 | 6.4 | 14.5 | 0.00 | 0.03 | 0.03 | 85 | 1011.2 |
| 20260507210103 | 27 | 56 | 4.8 | 12.9 | 0.00 | 0.03 | 0.03 | 86 | 1011.1 |
| 20260507204647 | 27 | 56 | 3.2 | 11.3 | 0.00 | 0.03 | 0.03 | 87 | 1011.1 |
| 20260507204503 | 27 | 56 | 4.8 | 12.9 | 0.00 | 0.03 | 0.03 | 87 | 1011.2 |
| 20260507203621 | 27 | 54 | 0.0 | 6.4 | 0.00 | 0.03 | 0.03 | 87 | 1011.1 |
| 20260507203102 | 27 | 57 | 3.2 | 8.0 | 0.00 | 0.03 | 0.03 | 87 | 1011.2 |
| 20260507202558 | 27 | 60 | 0.0 | 1.6 | 0.00 | 0.03 | 0.03 | 87 | 1011.1 |
| 20260507201617 | 27 | 59 | 0.0 | 1.6 | 0.00 | 0.03 | 0.03 | 86 | 1011.0 |
| 20260507201603 | 27 | 59 | 0.0 | 6.4 | 0.03 | 0.03 | 0.03 | 86 | 1011.0 |
| 20260507200629 | 27 | 61 | 0.0 | 4.8 | 0.00 | 0.03 | 0.03 | 85 | 1011.0 |
| 20260507200004 | 27 | 59 | 0.0 | 4.8 | 0.03 | 0.03 | 0.03 | 85 | 1010.9 |
| 20260507194603 | 27 | 58 | 0.0 | 3.2 | 0.03 | 0.03 | 0.03 | 84 | 1010.8 |
| 20260507194459 | 28 | 58 | 0.0 | 1.6 | 0.00 | 0.03 | 0.03 | 84 | 1010.7 |
| 20260507193449 | 28 | 59 | 0.0 | 6.4 | 0.00 | 0.03 | 0.03 | 83 | 1010.7 |
| 20260507193003 | 28 | 59 | 3.2 | 8.0 | 0.03 | 0.03 | 0.03 | 82 | 1010.8 |
| 20260507192433 | 28 | 61 | 4.8 | 16.1 | 0.00 | 0.03 | 0.03 | 82 | 1010.7 |
| 20260507191504 | 28 | 67 | 8.0 | 17.7 | 0.00 | 0.00 | 0.00 | 79 | 1010.8 |
| 20260507191419 | 29 | 68 | 3.2 | 16.1 | 0.00 | 0.00 | 0.00 | 79 | 1010.7 |
| 20260507190439 | 29 | 103 | 6.4 | 14.5 | 0.00 | 0.00 | 0.00 | 78 | 1010.7 |
| 20260507190004 | 28 | 103 | 4.8 | 16.1 | 0.00 | 0.00 | 0.00 | 78 | 1010.6 |
| 20260507184603 | 28 | 103 | 8.0 | 17.7 | 0.00 | 0.00 | 0.00 | 78 | 1010.5 |
| 20260507184238 | 29 | 103 | 8.0 | 20.9 | 0.00 | 0.00 | 0.00 | 78 | 1010.5 |
| 20260507183237 | 29 | 105 | 11.3 | 20.9 | 0.00 | 0.00 | 0.00 | 78 | 1010.5 |
| 20260507183003 | 28 | 103 | 12.9 | 22.5 | 0.00 | 0.00 | 0.00 | 78 | 1010.5 |
| 20260507181503 | 28 | 110 | 6.4 | 17.7 | 0.00 | 0.00 | 0.00 | 78 | 1010.4 |
| 20260507181053 | 29 | 109 | 4.8 | 12.9 | 0.00 | 0.00 | 0.00 | 78 | 1010.3 |
| 20260507180109 | 28 | 108 | 4.8 | 14.5 | 0.00 | 0.00 | 0.00 | 78 | 1010.6 |
| 20260507174926 | 29 | 108 | 8.0 | 19.3 | 0.00 | 0.00 | 0.00 | 77 | 1010.5 |
| 20260507174508 | 28 | 107 | 9.7 | 17.7 | 0.00 | 0.00 | 0.00 | 77 | 1010.5 |
| 20260507173904 | 29 | 107 | 11.3 | 19.3 | 0.00 | 0.00 | 0.00 | 77 | 1010.4 |
| 20260507173104 | 28 | 116 | 9.7 | 20.9 | 0.00 | 0.00 | 0.00 | 77 | 1010.6 |
| 20260507171746 | 29 | 113 | 9.7 | 20.9 | 0.00 | 0.00 | 0.00 | 77 | 1010.6 |
| 20260507171626 | 28 | 107 | 9.7 | 22.5 | 0.00 | 0.00 | 0.00 | 77 | 1010.7 |
| 20260507170759 | 29 | 109 | 8.0 | 16.1 | 0.00 | 0.00 | 0.00 | 77 | 1010.7 |
| 20260507170003 | 28 | 113 | 8.0 | 16.1 | 0.00 | 0.00 | 0.00 | 76 | 1010.8 |
| 20260507165757 | 29 | 112 | 8.0 | 17.7 | 0.00 | 0.00 | 0.00 | 76 | 1010.7 |
| 20260507164757 | 29 | 111 | 9.7 | 20.9 | 0.00 | 0.00 | 0.00 | 76 | 1010.7 |
| 20260507164604 | 28 | 115 | 11.3 | 19.3 | 0.00 | 0.00 | 0.00 | 76 | 1010.8 |
| 20260507163736 | 29 | 102 | 11.3 | 22.5 | 0.00 | 0.00 | 0.00 | 76 | 1010.8 |
| 20260507163002 | 28 | 101 | 16.1 | 24.1 | 0.00 | 0.00 | 0.00 | 76 | 1010.9 |
| 20260507161524 | 29 | 105 | 9.7 | 22.5 | 0.00 | 0.00 | 0.00 | 76 | 1010.8 |
| 20260507161504 | 29 | 105 | 9.7 | 24.1 | 0.00 | 0.00 | 0.00 | 75 | 1010.8 |
| 20260507160519 | 29 | 136 | 12.9 | 22.5 | 0.00 | 0.00 | 0.00 | 75 | 1010.9 |
| 20260507160120 | 29 | 121 | 14.5 | 24.1 | 0.00 | 0.00 | 0.00 | 75 | 1010.8 |
| 20260507155522 | 29 | 103 | 12.9 | 24.1 | 0.00 | 0.00 | 0.00 | 75 | 1010.8 |
| 20260507154504 | 29 | 105 | 14.5 | 25.7 | 0.00 | 0.00 | 0.00 | 75 | 1011.0 |
| 20260507154500 | 29 | 104 | 14.5 | 27.4 | 0.00 | 0.00 | 0.00 | 75 | 1010.9 |
| 20260507153520 | 29 | 105 | 12.9 | 27.4 | 0.00 | 0.00 | 0.00 | 75 | 1011.0 |
| 20260507153102 | 29 | 148 | 16.1 | 24.1 | 0.00 | 0.00 | 0.00 | 75 | 1011.2 |
| 20260507151603 | 29 | 105 | 11.3 | 17.7 | 0.00 | 0.00 | 0.00 | 75 | 1011.2 |
| 20260507151311 | 29 | 107 | 11.3 | 24.1 | 0.00 | 0.00 | 0.00 | 75 | 1011.3 |
| 20260507150308 | 29 | 136 | 12.9 | 24.1 | 0.00 | 0.00 | 0.00 | 75 | 1011.5 |
| 20260507150003 | 29 | 106 | 12.9 | 25.7 | 0.00 | 0.00 | 0.00 | 75 | 1011.4 |
| 20260507145258 | 29 | 99 | 12.9 | 24.1 | 0.00 | 0.00 | 0.00 | 75 | 1011.3 |
| 20260507144604 | 29 | 107 | 9.7 | 25.7 | 0.00 | 0.00 | 0.00 | 75 | 1011.5 |
| 20260507144313 | 30 | 109 | 9.7 | 22.5 | 0.00 | 0.00 | 0.00 | 75 | 1011.4 |
| 20260507143323 | 30 | 107 | 11.3 | 22.5 | 0.00 | 0.00 | 0.00 | 74 | 1011.4 |
| 20260507143003 | 29 | 120 | 8.0 | 19.3 | 0.00 | 0.00 | 0.00 | 74 | 1011.4 |
| 20260507142317 | 30 | 105 | 9.7 | 17.7 | 0.00 | 0.00 | 0.00 | 74 | 1011.4 |
| 20260507141503 | 29 | 119 | 9.7 | 19.3 | 0.00 | 0.00 | 0.00 | 74 | 1011.6 |
| 20260507141335 | 30 | 121 | 8.0 | 17.7 | 0.00 | 0.00 | 0.00 | 74 | 1011.5 |
| 20260507140341 | 30 | 112 | 11.3 | 19.3 | 0.00 | 0.00 | 0.00 | 74 | 1011.3 |
| 20260507140115 | 29 | 115 | 11.3 | 20.9 | 0.00 | 0.00 | 0.00 | 73 | 1011.5 |
| 20260507135337 | 30 | 100 | 11.3 | 24.1 | 0.00 | 0.00 | 0.00 | 73 | 1011.4 |
| 20260507134504 | 30 | 105 | 11.3 | 25.7 | 0.00 | 0.00 | 0.00 | 73 | 1011.5 |
| 20260507134323 | 30 | 122 | 11.3 | 24.1 | 0.00 | 0.00 | 0.00 | 72 | 1011.5 |
| 20260507133107 | 30 | 95 | 12.9 | 25.7 | 0.00 | 0.00 | 0.00 | 72 | 1011.3 |
| 20260507132125 | 30 | 97 | 11.3 | 19.3 | 0.00 | 0.00 | 0.00 | 73 | 1011.3 |
| 20260507131623 | 30 | 139 | 11.3 | 24.1 | 0.00 | 0.00 | 0.00 | 73 | 1011.2 |
| 20260507131107 | 30 | 109 | 12.9 | 22.5 | 0.00 | 0.00 | 0.00 | 73 | 1011.2 |
| 20260507130122 | 30 | 121 | 12.9 | 22.5 | 0.00 | 0.00 | 0.00 | 73 | 1011.1 |
| 20260507130003 | 30 | 115 | 16.1 | 24.1 | 0.00 | 0.00 | 0.00 | 73 | 1011.1 |